Zurück zum Katalog

COSMOS 2362

GLONASS

AktivNavigationMEO
NORAD 25595·PAYLOAD·🇷🇺 Russia

Gestartet Dec 30, 1998 von Baikonur Cosmodrome

Loading…

Nächste Überflüge (nächste 24 Stunden)

TLE

AktuellSource: Space-Track

Epoche: Sep 13, 2026, 19:37 UTC

1 25595U 98077C   26256.81773492 -.00000030  00000-0  00000-0 0  9993
2 25595  64.3988  57.1052 0007194  61.3610 295.9444  2.13103814215563

Verfolge COSMOS 2362 in Echtzeit mit AllMySat

Download on the App Store